Tracking 27382 objects as of 5-Jun-2023
HD Live streaming from Space Station
objects crossing your sky now

STARLINK-6119

Track STARLINK-6119 now!
10-day predictions
STARLINK-6119 is classified as:


NORAD ID: 56125
Int'l Code: 2023-046AK
Perigee: 512.8 km
Apogee: 514.7 km
Inclination: 43.0 °
Period: 94.8 minutes
Semi major axis: 6884 km
RCS: Unknown
Launch date: March 29, 2023
Source: United States (US)
Launch site: AIR FORCE EASTERN TEST RANGE (AFETR)
Your satellite tracking list
Your tracking list is empty




NASA's NSSDC Master Catalog

Two Line Element Set (TLE):
1 56125U 23046AK  23155.58335648 -.00870481  00000-0 -42971-1 0  9996
2 56125  42.9985 230.3278 0001371 275.3224  50.1088 15.19731653  1307
Source of the keplerian elements: AFSPC